Volver al catálogo

STARLINK-30381

ActivoComunicacionesVLEO
NORAD 57785·PAYLOAD·🇺🇸 United States

Lanzado Sep 4, 2023 desde Cape Canaveral Space Force Station

Loading…

Próximos Pases (próximas 24 horas)

TLE

ActualizadoSource: CelesTrak SupGP

Época: Sep 14, 2026, 21:15 UTC

1 57785C 23134Q   26257.88590278  .00019629  00000+0  71103-3 0  2572
2 57785  43.0015 205.9450 0001252 258.2069  26.2380 15.27566043    15

Sigue STARLINK-30381 en tiempo real con AllMySat

Download on the App Store